Location: La Trinit�
(48.1620°N, 3.4512°W)
Time: 16:42:42
(UTC+00:00)

Cosmos 1151 Rocket - Pass Details

Date: 08 May 2021
Orbit: 591 x 616 km, 82.5° (Epoch: 24 June)

Event Time Altitude Azimuth Distance (km) Brightness Sun altitude
Exits shadow 20:58:02 13° 165° (SSE) 1,799 4.9 -11.7°
Maximum altitude 21:01:47 47° 93° (E) 812 3.3 -12.2°
Drops below altitude 10° 21:06:01 10° 20° (NNE) 1,987 6.0 -12.7°
Sets 21:08:18 0° 15° (NNE) 2,900 7.0 -13.0°
